KE8DAF-15 Weather Reports


time (UTC)temp
C
wind
direction
speed
KPH
gust
KPH
rain 1hr
cm
rain 24hr
cm
rain mn
cm
humidity
%
barometer
mb
20260507223449 6 323 4.8 12.9 0.00 0.00 0.00 60 998.0
20260507222949 6 309 3.2 11.3 0.00 0.00 0.00 57 997.9
20260507222449 6 250 3.2 4.8 0.00 0.00 0.00 58 997.7
20260507221949 6 300 8.0 11.3 0.00 0.00 0.00 57 997.7
20260507221449 6 284 8.0 17.7 0.00 0.00 0.00 55 997.7
20260507220949 6 298 6.4 17.7 0.00 0.00 0.00 55 997.7
20260507220449 7 284 4.8 9.7 0.00 0.00 0.00 55 997.7
20260507215949 7 288 8.0 9.7 0.00 0.00 0.00 56 997.7
20260507215449 6 294 9.7 17.7 0.00 0.00 0.00 54 997.7
20260507214949 7 284 6.4 19.3 0.00 0.00 0.00 55 997.7
20260507214449 7 273 3.2 9.7 0.00 0.00 0.00 57 997.7
20260507213949 7 257 6.4 8.0 0.00 0.00 0.00 56 997.6
20260507213449 7 273 8.0 14.5 0.00 0.00 0.00 55 997.6
20260507212949 7 290 4.8 12.9 0.00 0.00 0.00 55 997.6
20260507212449 7 288 4.8 11.3 0.00 0.00 0.00 55 997.6
20260507211949 7 239 6.4 11.3 0.00 0.00 0.00 54 997.6
20260507211449 7 284 8.0 16.1 0.00 0.00 0.00 53 997.6
20260507210950 7 287 6.4 17.7 0.00 0.00 0.00 53 997.6
20260507210450 7 258 6.4 12.9 0.00 0.00 0.00 55 997.6
20260507205949 7 282 8.0 14.5 0.00 0.00 0.00 54 997.6
20260507205449 7 270 8.0 14.5 0.00 0.00 0.00 54 997.7
20260507204949 7 284 8.0 17.7 0.00 0.00 0.00 54 997.7
20260507204449 7 288 4.8 14.5 0.00 0.00 0.00 55 997.6
20260507203950 7 277 4.8 8.0 0.00 0.00 0.00 58 997.8
20260507203449 7 283 4.8 11.3 0.00 0.00 0.00 56 997.8
20260507202950 7 350 6.4 11.3 0.00 0.00 0.00 57 997.9
20260507202450 7 320 6.4 16.1 0.00 0.00 0.00 57 997.9
20260507201950 7 288 6.4 14.5 0.00 0.00 0.00 58 997.8
20260507201450 7 301 6.4 17.7 0.00 0.00 0.00 56 997.8
20260507200950 7 255 4.8 11.3 0.00 0.00 0.00 60 997.8
20260507200450 7 317 8.0 11.3 0.00 0.00 0.00 60 997.8
20260507195950 7 283 9.7 16.1 0.00 0.00 0.00 59 997.9
20260507195450 7 290 8.0 12.9 0.00 0.00 0.00 58 997.8
20260507194950 7 290 8.0 11.3 0.00 0.00 0.00 60 997.9
20260507194450 7 297 8.0 19.3 0.00 0.00 0.00 57 998.0
20260507193950 6 292 6.4 16.1 0.00 0.00 0.00 60 998.1
20260507193450 6 297 6.4 14.5 0.00 0.00 0.00 60 998.2
20260507192950 6 308 3.2 14.5 0.00 0.00 0.00 61 998.2
20260507192450 6 138 1.6 6.4 0.00 0.00 0.00 69 998.3
20260507191950 6 174 3.2 6.4 0.00 0.00 0.00 69 998.4
20260507191450 6 173 1.6 6.4 0.00 0.00 0.00 71 998.4
20260507190950 6 147 1.6 6.4 0.00 0.00 0.00 71 998.5
20260507190450 6 53 0.0 0.0 0.00 0.00 0.00 73 998.5
20260507185950 6 85 1.6 4.8 0.00 0.00 0.00 72 998.6
20260507185450 6 143 1.6 3.2 0.00 0.00 0.00 72 998.6
20260507184950 6 244 0.0 3.2 0.00 0.00 0.00 69 998.6
20260507184450 6 151 1.6 1.6 0.00 0.00 0.00 70 998.6
20260507183950 6 175 1.6 6.4 0.00 0.00 0.00 68 998.6
20260507183450 6 126 1.6 3.2 0.00 0.00 0.00 73 998.6
20260507182950 5 104 1.6 4.8 0.00 0.00 0.00 72 998.7
20260507182450 5 99 1.6 3.2 0.00 0.00 0.00 71 998.7
20260507181950 5 111 1.6 3.2 0.00 0.00 0.00 70 998.8
20260507181450 5 126 0.0 3.2 0.00 0.00 0.00 72 998.8
20260507180950 5 224 0.0 3.2 0.00 0.00 0.00 70 998.8
20260507180450 5 306 1.6 1.6 0.00 0.00 0.00 70 998.8
20260507175950 5 306 1.6 4.8 0.00 0.00 0.00 69 998.8
20260507175450 5 331 3.2 6.4 0.00 0.00 0.00 69 998.8
20260507174950 5 321 4.8 6.4 0.00 0.00 0.00 67 998.8
20260507174450 5 286 6.4 11.3 0.00 0.00 0.00 69 998.9
20260507173950 5 307 8.0 11.3 0.00 0.00 0.00 69 998.9
20260507173450 5 301 8.0 14.5 0.00 0.00 0.00 71 998.9
20260507172950 5 316 8.0 12.9 0.00 0.00 0.00 70 999.0
20260507172450 5 320 8.0 19.3 0.00 0.00 0.00 67 999.1
20260507171950 5 291 6.4 14.5 0.00 0.00 0.00 69 999.0
20260507171450 5 286 3.2 8.0 0.00 0.00 0.00 69 999.1
20260507170950 5 323 6.4 6.4 0.00 0.00 0.00 71 999.2
20260507170450 5 321 11.3 17.7 0.00 0.00 0.00 72 999.2
20260507165950 5 0 11.3 24.1 0.00 0.00 0.00 67 999.4
20260507165450 6 328 9.7 16.1 0.00 0.00 0.00 62 999.4
20260507164950 6 327 9.7 16.1 0.00 0.00 0.00 61 999.3
20260507164450 6 296 8.0 17.7 0.00 0.00 0.00 61 999.4
20260507163950 6 309 8.0 16.1 0.00 0.00 0.00 62 999.4
20260507163450 6 255 11.3 14.5 0.00 0.00 0.00 61 999.4
20260507162951 6 287 9.7 20.9 0.00 0.00 0.00 61 999.5
20260507162450 6 288 8.0 17.7 0.00 0.00 0.00 60 999.5
20260507161950 6 273 9.7 17.7 0.00 0.00 0.00 61 999.5
20260507161450 7 300 8.0 16.1 0.00 0.00 0.00 61 999.4
20260507160950 6 282 9.7 14.5 0.00 0.00 0.00 62 999.4
20260507160450 6 281 12.9 17.7 0.00 0.00 0.00 61 999.5
20260507155950 6 294 11.3 19.3 0.00 0.00 0.00 61 999.5
20260507155450 6 305 11.3 17.7 0.00 0.00 0.00 62 999.5
20260507154950 6 316 14.5 20.9 0.00 0.00 0.00 61 999.5
20260507154450 6 302 14.5 24.1 0.00 0.00 0.00 60 999.6
20260507153951 6 301 14.5 19.3 0.00 0.00 0.00 60 999.6
20260507153451 6 292 16.1 20.9 0.00 0.00 0.00 60 999.6
20260507152951 6 305 12.9 22.5 0.00 0.00 0.00 61 999.5
20260507152451 6 286 11.3 17.7 0.00 0.00 0.00 61 999.6
20260507151951 5 316 11.3 22.5 0.00 0.00 0.00 62 999.6
20260507151451 5 305 11.3 16.1 0.00 0.00 0.00 62 999.7
20260507150951 5 313 11.3 17.7 0.00 0.00 0.00 62 999.7
20260507150451 5 319 12.9 16.1 0.00 0.00 0.00 62 999.7
20260507145951 5 296 14.5 22.5 0.00 0.00 0.00 61 999.7
20260507145451 5 304 11.3 20.9 0.00 0.00 0.00 62 999.7
20260507144951 5 304 9.7 16.1 0.00 0.00 0.00 62 999.7
20260507144451 5 318 9.7 17.7 0.00 0.00 0.00 61 999.7
20260507143951 5 298 9.7 16.1 0.00 0.00 0.00 62 999.7
20260507143451 5 294 8.0 17.7 0.00 0.00 0.00 62 999.8
20260507142951 5 291 9.7 16.1 0.00 0.00 0.00 64 999.7
20260507142451 5 284 8.0 19.3 0.00 0.00 0.00 63 999.7
20260507141951 5 284 6.4 20.9 0.00 0.00 0.00 65 999.6
20260507141451 5 268 8.0 16.1 0.00 0.00 0.00 66 999.7
20260507140951 5 298 8.0 14.5 0.00 0.00 0.00 67 999.7
20260507140451 5 297 6.4 14.5 0.00 0.00 0.00 65 999.8
20260507135951 5 319 3.2 14.5 0.00 0.00 0.00 69 999.8
20260507135451 5 281 4.8 6.4 0.00 0.00 0.00 69 999.8
20260507134951 5 279 4.8 16.1 0.00 0.00 0.00 69 999.9
20260507134451 5 279 4.8 11.3 0.00 0.00 0.00 68 999.9
20260507133951 5 286 4.8 8.0 0.00 0.00 0.00 70 1000.0
20260507133451 5 285 4.8 8.0 0.00 0.00 0.00 70 999.9
20260507132951 4 273 3.2 6.4 0.00 0.00 0.00 72 999.8
20260507132451 4 295 3.2 8.0 0.00 0.00 0.00 72 999.8
20260507131951 4 287 3.2 9.7 0.00 0.00 0.00 71 999.8
20260507131451 4 285 3.2 9.7 0.00 0.00 0.00 73 999.9
20260507130951 3 287 3.2 6.4 0.00 0.00 0.00 75 999.9
20260507130451 3 277 3.2 9.7 0.00 0.00 0.00 75 999.9
20260507125951 3 286 3.2 6.4 0.00 0.00 0.00 76 999.9
20260507125451 3 289 3.2 4.8 0.00 0.00 0.00 78 999.9
20260507124951 2 282 3.2 6.4 0.00 0.00 0.00 80 999.9
20260507124451 2 282 3.2 4.8 0.00 0.00 0.00 81 999.8
20260507123951 2 286 3.2 6.4 0.00 0.00 0.00 83 999.8
20260507123451 1 276 3.2 4.8 0.00 0.00 0.00 83 999.8
20260507122951 1 278 1.6 4.8 0.00 0.00 0.00 84 999.8
20260507122451 1 280 1.6 3.2 0.00 0.00 0.00 85 999.8
20260507121951 1 283 1.6 3.2 0.00 0.00 0.00 84 999.8
20260507121451 0 284 0.0 4.8 0.00 0.00 0.00 85 999.8
20260507120951 0 276 0.0 0.0 0.00 0.00 0.00 85 999.8
20260507120451 0 276 0.0 0.0 0.00 0.00 0.00 86 999.9
20260507115951 0 276 0.0 1.6 0.00 0.00 0.00 86 999.8
20260507115451 0 276 0.0 1.6 0.00 0.00 0.00 85 999.8
20260507114951 0 276 0.0 1.6 0.00 0.00 0.00 84 999.7
20260507114451 0 276 0.0 1.6 0.00 0.00 0.00 84 999.6
20260507113951 0 276 0.0 0.0 0.00 0.00 0.00 83 999.6
20260507113451 0 276 1.6 1.6 0.00 0.00 0.00 83 999.6
20260507112951 0 276 1.6 3.2 0.00 0.00 0.00 83 999.6
20260507112451 0 276 0.0 1.6 0.00 0.00 0.00 83 999.6
20260507111951 0 276 0.0 0.0 0.00 0.00 0.00 83 999.6
20260507111451 0 276 0.0 0.0 0.00 0.00 0.00 83 999.5
20260507110951 0 276 0.0 0.0 0.00 0.00 0.00 83 999.5
20260507110451 0 276 0.0 0.0 0.00 0.00 0.00 83 999.5
20260507105951 0 276 0.0 0.0 0.00 0.00 0.00 83 999.4
20260507105452 0 276 0.0 0.0 0.00 0.00 0.00 82 999.4
20260507104952 0 276 0.0 0.0 0.00 0.00 0.00 82 999.4
20260507104452 0 276 1.6 1.6 0.00 0.00 0.00 82 999.4
20260507103952 0 276 3.2 3.2 0.00 0.00 0.00 81 999.3
20260507103452 0 272 3.2 3.2 0.00 0.00 0.00 82 999.3
20260507102952 0 276 3.2 3.2 0.00 0.00 0.00 82 999.3
20260507102452 0 281 1.6 3.2 0.00 0.00 0.00 82 999.2
20260507101952 -1 281 1.6 3.2 0.00 0.00 0.00 83 999.2
20260507101452 -1 281 1.6 3.2 0.00 0.00 0.00 83 999.2
20260507100952 -1 281 1.6 3.2 0.00 0.00 0.00 83 999.2
20260507100452 -1 281 0.0 1.6 0.00 0.00 0.00 83 999.2
20260507095952 -1 281 0.0 0.0 0.00 0.00 0.00 82 999.3
20260507095452 -1 281 0.0 0.0 0.00 0.00 0.00 82 999.3
20260507094952 -1 281 0.0 0.0 0.00 0.00 0.00 81 999.3
20260507094452 -1 281 0.0 1.6 0.00 0.00 0.00 81 999.3
20260507093952 0 281 1.6 3.2 0.00 0.00 0.00 80 999.3
20260507093452 0 281 1.6 3.2 0.00 0.00 0.00 80 999.3
20260507092952 0 281 3.2 3.2 0.00 0.00 0.00 80 999.3
20260507092452 0 287 1.6 3.2 0.00 0.00 0.00 80 999.3
20260507091952 0 287 1.6 3.2 0.00 0.00 0.00 79 999.4
20260507091452 0 285 1.6 3.2 0.00 0.00 0.00 79 999.4
20260507090952 0 284 3.2 3.2 0.00 0.00 0.00 79 999.4
20260507090452 0 292 3.2 4.8 0.00 0.00 0.00 79 999.4
20260507085952 0 289 1.6 4.8 0.00 0.00 0.00 79 999.3
20260507085452 0 280 0.0 3.2 0.00 0.00 0.00 79 999.4
20260507084952 0 280 0.0 1.6 0.00 0.00 0.00 79 999.4
20260507084452 0 280 1.6 3.2 0.00 0.00 0.00 78 999.5
20260507083954 0 280 1.6 3.2 0.00 0.00 0.00 78 999.5
20260507083452 0 280 1.6 3.2 0.00 0.00 0.00 78 999.5
20260507082952 0 280 1.6 3.2 0.00 0.00 0.00 78 999.5
20260507082452 0 280 1.6 3.2 0.00 0.00 0.00 78 999.5
20260507081952 0 280 1.6 4.8 0.00 0.00 0.00 78 999.5
20260507081452 0 281 1.6 3.2 0.00 0.00 0.00 78 999.5
20260507080952 0 271 3.2 3.2 0.00 0.00 0.00 78 999.5
20260507080452 0 271 3.2 3.2 0.00 0.00 0.00 78 999.5
20260507075952 0 271 3.2 3.2 0.00 0.00 0.00 78 999.5
20260507075452 0 271 3.2 3.2 0.00 0.00 0.00 78 999.5
20260507074952 0 274 3.2 4.8 0.00 0.00 0.00 78 999.6
20260507074452 0 281 3.2 4.8 0.00 0.00 0.00 78 999.6
20260507073952 0 281 3.2 4.8 0.00 0.00 0.00 78 999.6
20260507073452 0 279 3.2 4.8 0.00 0.00 0.00 78 999.6
20260507072952 0 279 3.2 4.8 0.00 0.00 0.00 78 999.6
20260507072452 0 279 3.2 4.8 0.00 0.00 0.00 78 999.6
20260507071952 0 279 3.2 4.8 0.00 0.00 0.00 77 999.6
20260507071452 0 283 3.2 4.8 0.00 0.00 0.00 77 999.6
20260507070952 0 289 3.2 4.8 0.00 0.00 0.00 77 999.7
20260507070452 0 289 3.2 4.8 0.00 0.00 0.00 76 999.7
20260507065952 0 277 3.2 4.8 0.00 0.00 0.00 76 999.8
20260507065452 0 273 1.6 4.8 0.00 0.00 0.00 76 999.8
20260507064952 0 276 1.6 3.2 0.00 0.00 0.00 76 999.9
20260507064453 0 276 3.2 3.2 0.00 0.00 0.00 76 1000.0
20260507063952 0 272 3.2 4.8 0.00 0.00 0.00 76 1000.0
20260507063452 0 277 3.2 3.2 0.00 0.00 0.00 76 1000.1
20260507062952 0 273 3.2 4.8 0.00 0.00 0.00 75 1000.1
20260507062452 0 279 3.2 4.8 0.00 0.00 0.00 75 1000.0
20260507061952 0 279 3.2 4.8 0.00 0.00 0.00 75 1000.1
20260507061453 0 271 3.2 3.2 0.00 0.00 0.00 74 1000.1
20260507060952 0 276 3.2 4.8 0.00 0.00 0.00 74 1000.2
20260507060453 0 279 1.6 3.2 0.00 0.00 0.00 74 1000.1
20260507055953 1 284 0.0 1.6 0.00 0.00 0.00 73 1000.1
20260507055453 1 284 0.0 0.0 0.00 0.00 0.00 73 1000.1
20260507054953 1 284 0.0 1.6 0.00 0.00 0.00 73 1000.3
20260507054453 1 284 0.0 0.0 0.00 0.00 0.00 73 1000.3
20260507053953 1 284 1.6 1.6 0.00 0.00 0.00 73 1000.4
20260507053453 1 284 1.6 3.2 0.00 0.00 0.00 72 1000.4
20260507052953 1 286 1.6 3.2 0.00 0.00 0.00 72 1000.5
20260507052453 1 286 1.6 3.2 0.00 0.00 0.00 72 1000.5
20260507051953 1 286 1.6 3.2 0.00 0.00 0.00 72 1000.6
20260507051453 1 286 1.6 3.2 0.00 0.00 0.00 72 1000.7
20260507050953 1 286 1.6 3.2 0.00 0.00 0.00 72 1000.6
20260507050453 1 286 1.6 3.2 0.00 0.00 0.00 72 1000.6
20260507045953 1 286 1.6 3.2 0.00 0.00 0.00 72 1000.6
20260507045453 1 295 1.6 3.2 0.00 0.00 0.00 72 1000.6
20260507044953 1 295 1.6 3.2 0.00 0.00 0.00 72 1000.6
20260507044453 1 295 1.6 3.2 0.00 0.00 0.00 71 1000.7
20260507043953 1 295 1.6 3.2 0.00 0.00 0.00 71 1000.6
20260507043453 1 295 1.6 3.2 0.00 0.00 0.00 71 1000.7
20260507042953 1 295 3.2 4.8 0.00 0.00 0.00 71 1000.7
20260507042453 1 295 3.2 4.8 0.00 0.00 0.00 71 1000.7
20260507041953 1 295 3.2 4.8 0.00 0.00 0.00 71 1000.7
20260507041454 1 295 3.2 4.8 0.00 0.00 0.00 71 1000.7
20260507040953 1 295 3.2 4.8 0.00 0.00 0.00 71 1000.7
20260507040453 1 296 3.2 4.8 0.00 0.00 0.00 71 1000.6
20260507035953 1 292 1.6 4.8 0.00 0.00 0.00 71 1000.6
20260507035453 1 294 1.6 3.2 0.00 0.00 0.00 70 1000.6
20260507034953 2 294 1.6 3.2 0.00 0.00 0.00 70 1000.6
20260507034453 2 294 1.6 3.2 0.00 0.00 0.00 70 1000.6
20260507033953 2 294 1.6 3.2 0.00 0.00 0.00 70 1000.6
20260507033453 2 294 1.6 3.2 0.00 0.00 0.00 69 1000.6
20260507032953 2 294 1.6 3.2 0.00 0.00 0.00 69 1000.6
20260507032453 2 294 1.6 3.2 0.00 0.00 0.00 70 1000.6
20260507031953 2 294 1.6 3.2 0.00 0.00 0.00 70 1000.6
20260507031453 2 294 1.6 3.2 0.00 0.00 0.00 69 1000.7
20260507030953 2 300 3.2 4.8 0.00 0.00 0.00 70 1000.7
20260507030453 2 300 3.2 4.8 0.00 0.00 0.00 70 1000.7
20260507025953 2 296 3.2 3.2 0.00 0.00 0.00 70 1000.7
20260507025453 2 295 3.2 4.8 0.00 0.00 0.00 70 1000.7
20260507024953 2 292 4.8 4.8 0.00 0.00 0.00 70 1000.7
20260507024453 2 297 4.8 6.4 0.00 0.00 0.00 70 1000.8
20260507023953 2 296 4.8 6.4 0.00 0.00 0.00 70 1000.7
20260507023453 2 292 3.2 4.8 0.00 0.00 0.00 70 1000.6
20260507022953 3 285 3.2 4.8 0.00 0.00 0.00 69 1000.6
20260507022453 3 293 3.2 4.8 0.00 0.00 0.00 69 1000.5
20260507021953 3 294 3.2 4.8 0.00 0.00 0.00 69 1000.6
20260507021453 3 294 3.2 3.2 0.00 0.00 0.00 69 1000.5
20260507020953 3 294 1.6 4.8 0.00 0.00 0.00 68 1000.5
20260507020453 3 284 1.6 3.2 0.00 0.00 0.00 68 1000.4
20260507015953 3 284 1.6 3.2 0.00 0.00 0.00 67 1000.4
20260507015453 3 284 1.6 3.2 0.00 0.00 0.00 67 1000.4
20260507014953 3 284 1.6 3.2 0.00 0.00 0.00 66 1000.4
20260507014453 3 286 1.6 3.2 0.00 0.00 0.00 66 1000.4
20260507013953 3 286 3.2 3.2 0.00 0.00 0.00 66 1000.4
20260507013453 3 286 3.2 4.8 0.00 0.00 0.00 65 1000.4
20260507012953 3 290 4.8 6.4 0.00 0.00 0.00 65 1000.3
20260507012453 3 291 3.2 6.4 0.00 0.00 0.00 64 1000.3
20260507011954 3 279 4.8 4.8 0.00 0.00 0.00 65 1000.2
20260507011454 3 294 4.8 9.7 0.00 0.00 0.00 63 1000.2
20260507010954 3 305 4.8 11.3 0.00 0.00 0.00 62 1000.1
20260507010454 3 328 6.4 8.0 0.00 0.00 0.00 62 1000.1
20260507005954 4 311 6.4 14.5 0.00 0.00 0.00 61 1000.1
20260507005454 4 311 9.7 12.9 0.00 0.00 0.00 61 1000.1
20260507004954 4 292 9.7 16.1 0.00 0.00 0.00 61 1000.1
20260507004454 4 310 6.4 14.5 0.00 0.00 0.00 61 1000.1
20260507003954 4 327 8.0 11.3 0.00 0.00 0.00 60 1000.1
20260507003454 4 305 9.7 14.5 0.00 0.00 0.00 60 1000.0
20260507002954 4 298 9.7 16.1 0.00 0.00 0.00 60 1000.0
20260507002454 4 306 9.7 14.5 0.00 0.00 0.00 59 999.9
20260507001954 4 314 11.3 17.7 0.00 0.00 0.00 59 999.9
20260507001455 4 281 11.3 17.7 0.00 0.00 0.00 59 999.9
20260507000954 5 327 11.3 16.1 0.00 0.00 0.00 59 999.9
20260507000454 5 331 12.9 17.7 0.00 0.00 0.00 58 999.8
20260506235954 5 291 12.9 19.3 0.00 0.00 0.00 57 999.8
20260506235454 5 304 11.3 19.3 0.00 0.00 0.00 57 999.7
20260506234954 5 315 11.3 17.7 0.00 0.00 0.00 57 999.7
20260506234454 5 308 12.9 19.3 0.00 0.00 0.00 56 999.7
20260506233954 5 317 11.3 19.3 0.00 0.00 0.00 57 999.6
20260506233454 5 313 12.9 16.1 0.00 0.00 0.00 56 999.7
20260506232954 5 330 12.9 20.9 0.00 0.00 0.00 55 999.8
20260506232454 5 344 11.3 20.9 0.00 0.00 0.00 56 999.7
20260506231954 5 332 11.3 17.7 0.00 0.00 0.00 55 999.7
20260506231454 5 317 14.5 19.3 0.00 0.00 0.00 55 999.7
20260506230954 5 303 16.1 25.7 0.00 0.00 0.00 54 999.7
20260506230454 5 325 16.1 27.4 0.00 0.00 0.00 54 999.7
20260506225954 5 0 12.9 20.9 0.00 0.00 0.00 54 999.7
20260506225454 6 288 11.3 16.1 0.00 0.00 0.00 56 999.7
20260506224954 6 308 11.3 17.7 0.00 0.00 0.00 55 999.7
20260506224454 6 307 12.9 19.3 0.00 0.00 0.00 55 999.7
20260506223954 6 304 12.9 19.3 0.00 0.00 0.00 53 999.7